DMSP 5D-2 F11 DEB, 28342

Orbit data source: Space-Track

DMSP 5D-2 F11 DEB, 28342 is space debris in SSO originally from a launch on Thu, 28 Nov 1991 UTC launched from the Air Force Western Test Range (AFWTR). Debris objects in space refer to the collection of defunct objects orbiting the Earth. Examples of debris include non-operational satellites, rocket bodies, and fragments generated from explosions, collisions, or faulty payload assembly.

Loading next visibility...
Identifier
28342, 1991-082BF
Orbit
SSO
Country
Flag of USUS
Related business
Manufacturer
Unknown
Mission
Spacecraft
Bus & Motor
Unknown
Mass
Unknown
Launch date (UTC)
1991-11-28 (34 years ago)
Launch vehicle
Unknown
Launch site
Air Force Western Test Range (AFWTR)
Object type
Payload
Rocket body
Debris
Shape & HBR
Unknown shape, 0.1 m
Radar Cross Section
Small (<0.1 m²)

Expand to show TLE details & history
Last TLE update: 1 day ago

TLE from 1 day ago
0 DMSP 5D-2 F11 DEB
1 28342U 91082BF  25349.40906579  .00004234  00000-0  14071-2 0  9990
2 28342  98.9744  47.7051 0066357 285.4167  73.9694 14.37020284112504
Epoch: 2025-12-15T09:49Z
TLE epoch observation values (Epoch: 2025-12-15T09:49:03.284Z)
Latitude
-0.00006°
Longitude
176.13338°
Altitude
758.483 km
Speed
7.482 km/s
True Right ascension
03h 10m 49s
True Declination
0° 00' 00"
Sunlit
Object was in full shadow at epoch
Visualization orbit readout
Latitude
Unknown
Longitude
Unknown
Altitude
Unknown
Speed
Unknown
Apparent Right ascension
Unknown
Apparent Declination
Unknown
Sunlit
N/A
Visualization observer readout
Local Sidereal Time
11:09:55
Azimuth
Unknown
Elevation
Unknown
Doppler factor
Unknown
Orbital elements
Apogee altitude
812.912 km
Perigee altitude
718.106 km
Semi-major axis
7,143.646 km
Eccentricity
0.00664
Inclination
98.9744°
RAAN
47.7051°
Arg. of periapsis
285.4167°
True anomaly
74.70188°
Mean anomaly
73.9694°
Eccentric anomaly
74.33548°
Mean motion
3.59471 °/min
Orbital period
100.15 mins
BSTAR
0.0014071
Loading maneuver chart data...
Computing Atmospheric mass density...

Documentation

Showing up to 5 results
|